Погода в Пушном

Россия / Республика Хакасия     54°13′33″N   90°28′54″E
темп.,
°C
ветер,
м/с
пор.,
м/с
влажн.,
%
обл.,
%
осадки,
мм/ч
давл.,
гПа
погр.,
м
25 января, пн
пн2501:00−22з2284100 0.0 103841
04:00−25сз1186100 0.0 104020
07:00−27сз2288100 0.0 104425
10:00−29з1182100 0.0 104719
13:00−26зюз1277100 0.0 1046302
16:00−27вюв119398 0.0 104521
19:00−31ю229175 0.0 104520
22:00−29ююз1287100 0.0 104422
26 января, вт
вт2601:00−32ююз128467 0.0 104219
04:00−34юз11840 0.0 104119
07:00−34юз11810 0.0 104119
10:00−32зюз11790 0.0 104119
13:00−28св11850 0.0 1040106
16:00−29св119523 0.0 104021
19:00−33зюз009959 0.0 104219
22:00−32ююз119935 0.0 104319
27 января, ср
ср2701:00−31ююз129218 0.0 104319
04:00−30ю22877 0.0 104321
07:00−28ююв228740 0.0 104223
10:00−24ююв2395100 0.0 1040104
13:00−21ююв3499100 0.5 1036176
16:00−18ююв3593100 0.3 1032196
19:00−17ююв3591100 0.3 1030132
22:00−13ю2387100 0.0 102878
28 января, чт
чт2801:00−9юз21080100 0.0 1027372
04:00−8зюз41476100 0.0 1027685
07:00−9юз2778100 0.0 1028231
10:00−9юз31279100 0.0 1029588
13:00−6з41375100 0.0 1028944
16:00−6зюз2980100 0.0 1027559
19:00−8ю2382100 0.0 102654
22:00−8ююз31279100 0.0 1024512
29 января, пт
пт2901:00−6зюз41874100 0.0 1022780
04:00−6зюз92069100 0.0 1021875
07:00−8зюз51778100 0.0 1021914
10:00−8юз31480100 0.0 10201020
13:00−5зюз41679100 0.0 10191338
16:00−5з31582100 0.0 10181387
19:00−7з41579100 0.0 1017997
22:00−7з71874100 0.0 1016926